FENGYUN 1C DEB

Satellite information

Favourite Embed

Satellite Type and Status

DEBRISIN ORBIT

Key statistics

Satellite FENGYUN 1C DEB at a glance.

Uptime

9616

Days in orbit

Revolutions

≈ 14.2

Per day

Orbit

SSO

Sun Synchronous Orbit

Inclination

99.2

Latest

Satellite identification and parameters

Extended collection of information and parameters for FENGYUN 1C DEB.

Object identification

Identified? True

Debris? True

Object name: FENGYUN 1C DEB

International designator: 1999-025DWZ

Object number (NORAD): 36272

Object ID (CCSDS): 36272

Country: PEOPLES REPUBLIC OF CHINA (PRC)

Current information (Y/N): Y

RCS size: SMALL

Orbital parameters

Period: 101.626 minutes

Inclination: 99.151 deg

SMA: 7213.778 km

Apoapsis: 957.259 km

Periapsis: 714.028 km

RAAN: 119.2923 deg

Eccentricy: 0.01685878

Argument of periapsis: 193.0902 deg

Mean anomaly: 166.587 deg

Mean motion: 14.16963253 rev/day

Mean motion (dot): 0.00001263 rev/day2

B* drag term: 0.00056742977 1/REarth

Two-line elements (TLE)

Creation date: Sept. 3, 2025, 2:21 a.m.

Reference frame: TEME

Reference center: EARTH

Epoch: Sept. 2, 2025, 9:17 p.m. UTC

TLE line 0: 0 FENGYUN 1C DEB

TLE line 1: 1 36272U 99025DWZ 25245.88721261 .00001263 00000-0 56743-3 0 9998

TLE line 2: 2 36272 99.1510 119.2923 0168588 193.0902 166.5870 14.16963253621882

Live tracking on map

Real-time ground track for satellite FENGYUN 1C DEB.

In-orbit conjunctions

A list of the most updated potential collisions computed for object FENGYUN 1C DEB.

Target Orbit TCA Probability of collision Miss distance Type
NOAA 16 DEB SSO 2025-07-07 04:10:43 0.0002200831 200.0 (m) DEBRIS
METEOR 2-19 LEO 2025-06-03 01:41:10 0.0006226479 91.0 (m) PAYLOAD
CZ-6A R/B LEO 2025-02-20 17:46:40 0.000107018 85.0 (m) ROCKET BODY
NOAA 16 DEB SSO 2024-11-16 12:59:09 0.001031287 167.0 (m) DEBRIS
MAST SSO 2024-07-27 15:33:22 0.0002602955 447.0 (m) PAYLOAD

Associated space launch

Chinese polar orbiting meteorological satellite

FENGYUN 1C DEB was lifted into orbit during the mission ‘Long March 4B | Feng Yun 1C’, on board a Long March 4B space rocket.

The launch took place on May 10, 1999, 1:33 a.m. from Launch Complex 7.

For more information about the launch, click the button.

Launch to space Long March 4B | Feng Yun 1C
Long March 4B | Feng Yun 1C

Agency: N/A

Status: Launch Successful

Launch date: May 10, 1999, 1:33 a.m. UTC

Rocket: Long March 4B

Launch pad: Launch Complex 7

Location: Taiyuan Satellite Launch Center, People's Republic of China

...

Latest news about this satellite

There are no fresh news available about this satellite. Check back as we update our databases every day.


Newsletter sign-up

Weekly statistics, charts and insights to help you stay on top of the space industry.